STARLINK-34060, 63815

Orbit data source: Space-Track

STARLINK-34060, 63815 is a payload satellite owned by SpaceX/Seattle (US) in LEO that was launched on Sun, 04 May 2025 UTC via an FALCON 9 launch vehicle from the Air Force Eastern Test Range (AFETR). Payload-class satellites include a variety of spacecraft equipped with specific instruments for various scientific and technological missions. These include communications satellites like Starlink; space stations such as the ISS; scientific satellites like the Hubble; Earth observation satellites from companies like Planet Labs, Umbra, and HawkEye 360; GPS; miniature CubeSats for education and research; and military/defense satellites.

Loading next visibility...
Identifier
63815, 2025-092M
Orbit
LEO
Country
Flag of USUS
Related business
Manufacturer
SpaceX/Seattle
Mission
Operational Commercial Communications
Bus & Motor
STARLINK V2MO, Unknown motor
Mass
575 kg wet, ~530 kg dry
Launch date (UTC)
2025-05-04 (5 months ago)
Launch vehicle
FALCON 9
Launch site
Air Force Eastern Test Range (AFETR)
Object type
Payload
Rocket body
Debris
Shape & HBR
Box + 1 Pan, 14.5 m
Radar Cross Section
41.120 m², Large (>1 m²)

Expand to show TLE details & history
Last TLE update: 2 days ago

TLE from 2 days ago
0 STARLINK-34060
1 63815U 25092M   25260.45371917  .00023663  00000-0  86634-3 0  9993
2 63815  43.0054  70.6159 0002435 271.0423  89.0150 15.27590698 22067
Epoch: 2025-09-17T10:53Z
TLE epoch observation values (Epoch: 2025-09-17T10:53:21.336Z)
Latitude
0.00001°
Longitude
-89.35244°
Altitude
482.765 km
Speed
7.626 km/s
True Right ascension
04h 42m 27s
True Declination
0° 00' 00"
Sunlit
Object was in daylight at epoch
Visualization orbit readout
Latitude
Unknown
Longitude
Unknown
Altitude
Unknown
Speed
Unknown
Apparent Right ascension
Unknown
Apparent Declination
Unknown
Sunlit
N/A
Visualization observer readout
Local Sidereal Time
17:59:41
Azimuth
Unknown
Elevation
Unknown
Doppler factor
Unknown
Orbital elements
Apogee altitude
486.633 km
Perigee altitude
483.29 km
Semi-major axis
6,863.098 km
Eccentricity
0.00024
Inclination
43.0054°
RAAN
70.6159°
Arg. of periapsis
271.0423°
True anomaly
89.0429°
Mean anomaly
89.015°
Eccentric anomaly
89.02895°
Mean motion
3.81736 °/min
Orbital period
94.31 mins
BSTAR
0.00086634
Loading maneuver chart data...
Computing Atmospheric mass density...
Loading historical data...
Loading historical data...
Loading historical data...
Loading historical data...
Loading historical data...
Loading historical data...
Loading historical data...

Documentation

Showing up to 5 results
|